Theta_e
308 309 309 309 309 308 309 310 311 311 310 311 313 313 312 311 311 311 312 312 313 313 313 314 318 337 347 341 341 341 340 342 343 343 343 343 341 341 341 341 340 339 338 336 336 337 337 337 336 337 337 337 338 337 338 338 338 338 338 337 337 336 337 337 337 337 337 337 337 337 338 338 338 338 338 338 338 338 337 336 337 338 338 338 338 337
308 310 309 309 309 309 310 311 311 311 310 309 310 312 311 311 311 312 313 312 313 313 313 315 324 343 345 340 340 340 340 342 343 344 344 343 342 341 340 340 339 338 337 336 337 337 337 337 336 336 337 337 337 337 337 338 337 337 337 337 337 336 337 337 337 337 337 337 337 337 338 337 337 338 337 337 337 337 337 337 337 336 336 336 336 335
308 309 309 309 311 312 311 311 311 311 311 309 309 311 312 312 312 312 313 313 312 313 314 314 325 342 344 342 340 338 341 341 339 341 342 342 342 340 339 339 339 339 338 338 337 337 337 337 337 336 337 336 337 337 337 337 337 337 337 337 337 337 337 337 336 336 336 336 336 337 337 337 337 337 336 336 336 337 336 335 335 335 335 335 335 334
308 309 309 310 312 313 311 311 310 311 311 310 310 312 314 313 310 311 312 313 312 315 317 321 335 345 343 342 340 339 343 341 337 337 338 339 339 339 338 337 339 339 339 339 338 337 337 337 337 336 336 336 336 337 337 337 337 337 337 337 337 337 337 337 337 336 336 337 337 337 337 337 336 335 335 334 334 334 334 333 333 333 334 334 334 333
308 308 309 311 312 312 311 310 310 311 311 310 310 311 313 312 310 312 314 314 312 318 327 335 346 350 343 342 343 341 342 341 338 338 338 337 336 336 336 336 337 338 338 339 339 338 338 337 337 336 336 336 336 337 337 337 337 337 337 337 337 337 337 337 337 337 337 337 337 337 336 335 335 333 332 332 331 331 332 331 331 331 331 332 332 331
307 307 309 310 311 311 310 309 309 310 311 311 310 311 312 312 312 313 313 313 309 313 326 331 334 344 344 342 342 340 341 341 339 340 339 337 336 335 336 336 337 337 337 338 338 338 338 337 336 336 335 336 336 337 337 337 337 337 337 337 337 337 337 338 337 338 338 338 338 337 335 334 333 331 330 330 329 329 330 329 329 328 329 329 330 329
306 306 309 310 311 311 310 309 309 310 311 311 311 310 311 312 312 312 311 312 312 312 319 320 321 340 346 342 342 340 341 342 338 339 339 337 336 335 336 337 337 338 338 338 338 338 338 337 336 335 335 336 337 337 337 337 337 337 337 337 337 337 337 338 338 338 338 338 338 336 335 334 333 331 329 329 329 329 328 327 327 326 326 327 327 326
306 306 308 310 310 311 311 309 308 309 310 311 312 311 311 312 311 312 310 311 316 314 317 321 326 342 348 342 343 342 342 343 340 340 339 337 337 336 336 337 337 337 337 338 339 338 337 336 336 335 335 336 337 337 337 337 336 336 336 337 338 338 337 338 338 338 338 337 335 334 334 333 332 331 328 328 328 327 327 326 325 325 324 324 324 324
307 306 308 309 310 311 311 310 308 309 309 311 312 311 311 312 311 312 310 311 316 312 316 326 330 339 348 344 341 342 344 345 344 340 338 338 337 337 337 337 337 337 337 337 338 338 337 336 335 335 335 336 337 337 337 337 336 336 336 337 337 337 338 338 338 338 336 335 333 331 333 332 331 330 328 327 327 326 326 325 324 323 322 322 321 321
307 307 308 309 310 310 310 310 308 308 309 310 311 311 310 311 311 312 311 311 312 312 315 324 329 336 347 348 340 341 346 346 344 341 338 338 337 337 338 337 337 337 337 336 336 337 336 336 336 335 335 336 337 337 337 336 336 336 336 336 337 337 337 337 338 337 333 333 332 332 332 332 330 328 327 326 325 324 324 323 322 321 320 319 319 319
307 309 309 308 310 310 309 310 309 308 309 310 311 309 309 313 313 312 314 311 311 316 316 318 328 333 337 344 341 340 345 344 343 342 339 338 337 337 339 338 339 338 337 337 337 337 336 336 336 335 336 336 336 337 337 336 336 335 335 335 336 336 336 336 336 335 333 332 332 331 332 331 329 328 327 325 323 322 323 322 320 320 319 318 317 317
306 309 309 308 309 310 309 309 308 308 309 310 310 309 311 315 313 311 313 312 311 319 319 317 328 331 327 338 342 337 339 341 342 342 340 339 338 338 339 338 339 339 338 338 337 338 337 336 335 335 336 336 336 336 336 336 335 335 335 335 335 334 334 335 335 334 333 332 331 331 331 330 330 330 327 325 323 322 322 321 319 318 317 316 316 315
306 308 309 309 310 309 309 309 308 308 308 309 310 311 311 312 313 311 313 315 315 319 321 318 328 333 329 335 341 337 338 340 341 341 339 339 338 339 339 339 339 339 338 338 338 338 337 336 335 335 336 336 336 336 335 335 335 335 335 335 335 333 331 332 334 333 332 331 331 331 330 330 330 329 327 325 324 323 322 321 319 317 316 315 314 314
307 307 308 309 309 309 309 309 308 308 307 307 308 310 311 312 313 313 313 315 316 319 319 318 326 333 329 331 336 337 337 338 340 340 339 339 339 339 339 339 340 339 338 338 338 338 337 336 335 335 336 336 335 336 335 335 335 334 335 334 334 333 332 332 333 333 332 331 332 332 331 331 330 327 326 325 324 323 321 320 318 316 315 314 313 313
309 310 310 308 309 309 309 309 308 309 308 307 308 309 312 315 315 316 316 315 316 318 315 316 326 331 325 329 336 334 334 339 342 343 341 340 339 340 340 340 341 340 338 338 338 338 336 335 335 335 335 335 335 335 335 335 334 334 334 334 333 333 333 333 333 332 332 332 333 333 331 330 329 327 326 324 323 322 320 319 317 316 314 313 313 313
308 310 310 309 309 309 308 309 308 309 309 307 308 309 311 315 318 317 321 324 322 317 315 318 328 330 326 333 339 336 339 345 346 344 342 341 340 340 341 341 341 340 339 338 338 337 336 335 335 335 335 335 335 335 335 334 334 334 334 334 333 333 333 332 332 332 332 333 333 332 331 329 328 326 325 323 321 320 319 318 316 315 313 313 313 312
308 311 311 308 309 308 308 310 308 309 312 309 308 309 309 313 317 315 317 323 319 314 319 322 327 331 331 336 340 340 343 346 345 343 341 341 341 341 342 341 341 340 339 338 337 337 337 336 335 335 335 335 335 334 335 334 333 333 333 333 332 332 332 331 331 332 332 333 332 331 330 328 327 326 324 322 320 319 318 317 315 314 313 313 312 312
312 315 315 309 309 309 308 310 308 309 312 310 307 310 310 309 316 321 322 321 318 318 322 322 327 334 333 333 340 343 345 345 344 343 341 341 341 341 341 341 340 340 339 338 337 336 337 336 335 335 335 335 335 334 334 333 333 333 332 332 331 331 331 330 331 331 332 332 331 329 328 327 326 325 324 321 319 318 316 315 314 314 313 312 312 311
313 313 314 310 309 309 308 309 309 309 309 310 310 311 312 313 317 320 323 323 319 317 318 317 323 331 331 335 342 344 345 345 343 342 342 342 342 341 341 341 340 340 338 338 337 337 337 336 335 335 335 335 334 334 333 333 332 331 331 330 331 330 330 330 330 330 331 330 329 328 326 325 324 324 322 320 319 317 315 313 313 313 312 311 310 310
314 313 313 311 309 309 308 309 309 309 308 309 311 309 312 319 319 316 319 323 319 319 322 319 319 326 332 339 343 343 343 344 342 343 343 341 341 341 341 341 340 339 339 338 337 337 336 336 335 335 335 334 334 333 332 331 330 329 328 328 329 330 329 329 329 329 328 328 327 325 324 323 322 321 320 318 317 316 314 312 312 311 310 310 309 310
312 314 315 312 309 309 309 309 309 309 309 308 309 311 309 311 315 316 317 318 317 324 330 323 320 329 335 336 338 341 341 342 342 342 342 341 341 341 340 340 340 339 339 338 337 336 336 335 335 334 334 333 332 331 329 328 328 327 326 326 327 329 329 327 326 326 326 325 325 323 322 321 321 320 318 317 316 314 313 312 310 309 309 308 308 308
311 317 322 316 310 309 310 310 310 309 309 309 311 314 311 309 314 316 315 315 318 324 329 325 324 332 335 333 336 340 339 341 342 341 341 341 341 341 341 340 339 339 338 337 336 336 335 335 334 333 332 331 329 328 327 326 325 325 325 325 325 327 328 326 325 324 324 323 322 322 321 320 319 318 317 316 314 313 312 311 309 308 307 307 306 306
312 316 320 316 312 312 311 310 312 311 310 310 311 313 312 312 317 320 321 322 318 317 322 322 322 331 340 336 335 338 339 340 340 340 341 341 340 341 341 340 339 338 337 337 336 335 335 334 333 332 330 328 327 326 325 324 323 323 323 323 324 326 326 324 323 323 322 321 321 320 319 318 317 317 315 314 312 311 310 309 307 307 306 306 305 305
313 313 314 313 313 313 311 310 311 310 310 311 312 311 311 313 319 328 336 332 319 316 320 316 314 330 344 337 334 339 342 342 341 340 340 340 340 341 340 339 339 338 337 337 336 335 334 333 332 330 328 326 325 324 323 323 322 322 322 321 323 324 323 322 322 321 321 320 319 318 318 317 316 315 314 312 310 308 307 307 306 306 305 304 303 304
313 316 316 314 314 313 312 311 309 308 312 317 318 313 311 315 317 321 328 327 317 318 323 318 317 329 337 334 336 343 345 344 343 341 340 339 340 341 340 340 339 338 337 337 336 335 333 332 330 328 327 325 324 323 322 321 321 320 320 320 321 321 320 320 320 320 319 318 318 317 316 316 315 314 312 310 308 307 306 306 305 305 304 302 302 304
313 319 321 318 316 316 317 317 316 314 313 316 317 313 312 315 315 316 320 322 317 316 322 326 328 333 334 334 340 346 345 344 342 341 339 339 340 341 340 339 338 338 338 337 336 335 332 331 329 327 326 324 323 322 321 320 320 319 319 320 320 319 318 319 319 318 318 317 316 315 315 314 313 313 310 308 306 306 305 305 304 304 303 300 300 304
316 321 325 324 319 320 324 322 319 317 314 313 312 312 313 315 318 322 321 321 321 318 321 332 339 342 339 337 341 344 343 343 341 339 340 339 340 341 339 338 337 337 337 336 335 333 331 330 328 326 325 323 322 321 320 320 319 318 318 318 319 318 317 317 317 317 317 316 315 314 314 313 312 311 309 306 305 305 304 304 303 302 300 298 300 304
317 317 321 324 319 318 320 316 313 314 313 314 315 314 317 319 320 321 322 325 325 318 320 331 338 344 342 337 340 342 340 340 340 339 340 340 340 340 339 338 337 337 336 335 334 333 331 329 327 325 324 322 321 320 320 319 318 317 318 317 317 317 317 316 316 316 316 315 314 314 313 312 311 309 307 305 304 303 303 301 300 298 297 298 301 305
323 318 317 321 319 317 317 311 311 315 314 317 321 318 320 323 319 318 328 333 324 317 328 336 336 343 344 337 337 338 337 338 338 338 339 339 340 340 338 338 338 337 337 335 334 332 330 329 326 324 323 321 320 320 319 318 317 316 317 317 317 316 316 315 315 314 314 314 313 313 312 310 308 306 305 304 303 302 301 299 297 297 297 299 302 304
323 319 317 324 324 319 320 315 311 315 313 314 320 322 325 327 323 324 334 332 323 323 336 339 337 343 343 337 337 340 339 338 336 337 339 339 339 339 338 338 338 337 336 334 333 332 330 328 325 323 322 321 320 319 318 317 316 315 316 316 315 315 315 315 314 314 314 313 313 312 311 309 306 305 304 303 303 302 300 298 297 297 299 300 302 304
320 315 319 335 332 318 321 322 314 315 316 313 317 324 328 324 320 322 327 328 331 334 336 337 340 342 340 339 342 342 339 338 337 338 339 338 339 339 338 338 338 336 335 333 331 331 329 327 325 322 321 320 320 319 317 316 315 315 315 315 314 314 314 314 314 313 313 313 312 312 310 308 306 304 304 303 302 302 300 298 297 298 300 301 302 302
322 320 325 341 334 316 320 326 319 319 320 315 315 322 326 323 319 319 322 330 341 344 339 339 344 346 342 340 342 341 338 338 337 337 338 338 338 338 338 338 337 336 334 332 331 330 328 326 324 322 321 320 319 318 317 316 315 314 314 314 313 314 313 313 313 313 313 312 311 311 310 307 305 304 303 303 302 302 300 297 297 299 300 301 301 302
325 327 327 334 329 315 318 324 322 319 317 314 319 325 326 324 321 318 319 327 338 343 344 344 343 345 341 338 342 342 339 338 337 337 338 338 337 338 337 337 336 335 333 332 330 329 327 325 324 322 321 320 319 318 317 316 315 314 314 313 313 313 313 313 313 312 312 311 310 310 308 306 305 304 303 302 302 301 299 296 297 299 300 300 301 301
330 330 323 330 332 318 315 321 319 318 317 317 327 333 327 321 323 322 318 322 330 335 341 344 341 340 339 339 343 343 338 338 337 335 336 337 337 337 337 336 335 334 332 331 329 328 326 324 323 322 321 320 318 317 316 316 316 315 314 313 313 313 312 312 312 311 311 310 309 308 307 306 305 303 302 302 301 299 297 296 297 299 300 300 300 301
332 329 323 331 332 320 320 326 319 316 321 326 332 334 327 322 326 328 324 324 328 329 336 346 344 340 341 341 341 341 339 339 338 336 336 336 336 337 336 335 334 333 332 330 328 327 325 323 322 321 320 319 318 316 316 315 315 314 313 313 312 312 312 311 311 310 310 309 308 307 306 305 304 303 302 301 300 298 296 296 297 298 299 300 300 300
325 326 325 327 323 319 326 329 321 318 324 331 332 329 325 322 323 326 325 324 326 326 332 344 344 338 338 339 339 340 339 339 339 337 336 336 336 336 335 334 333 332 331 329 327 326 325 323 322 320 319 319 317 315 315 315 314 313 312 312 312 311 311 310 310 309 309 308 307 306 306 305 304 303 302 300 299 298 296 296 296 297 298 299 300 300
323 326 326 321 318 322 327 324 324 324 323 329 329 321 320 319 320 328 330 324 323 323 326 336 339 336 338 338 337 338 338 338 340 338 336 336 336 335 334 333 332 330 329 328 326 325 324 323 322 320 319 317 316 315 315 314 314 313 312 311 311 310 310 310 309 308 308 307 306 306 305 305 304 303 302 301 300 299 298 296 295 296 297 298 299 300
319 320 322 319 319 327 330 324 326 326 321 327 332 327 326 325 324 332 335 329 327 324 326 336 340 336 336 337 336 337 338 339 340 338 337 336 334 334 335 333 330 329 327 326 325 324 324 322 321 319 318 316 315 315 314 314 313 312 311 310 310 309 309 309 308 307 307 307 306 306 305 305 304 303 302 301 301 301 299 296 295 296 296 298 299 299
319 321 328 328 324 330 336 328 323 321 320 326 330 329 328 326 326 331 330 331 334 328 325 334 338 334 334 337 336 337 339 342 341 337 336 336 334 334 334 332 330 327 325 325 324 323 322 321 319 318 317 315 314 314 314 313 312 312 311 310 310 309 309 308 308 308 308 308 307 306 306 305 304 303 303 302 302 301 299 297 295 295 296 297 298 298
324 326 330 327 322 328 334 326 318 321 322 323 326 329 326 321 323 323 321 328 338 333 326 331 335 333 333 335 335 336 339 342 340 335 334 334 333 332 331 330 329 326 324 324 323 321 321 319 317 316 315 314 313 313 313 312 312 311 310 309 309 309 308 308 309 309 308 307 306 306 306 305 305 304 303 303 303 302 300 297 296 295 295 296 297 297
323 324 325 325 324 328 330 320 314 321 324 321 325 330 324 320 323 327 327 331 336 332 328 330 333 331 332 334 335 335 336 336 336 334 334 333 332 331 329 326 325 324 323 323 322 320 319 317 316 315 314 314 313 312 312 312 311 311 310 309 309 309 308 308 308 307 306 305 305 305 305 305 305 305 304 304 303 302 300 299 297 295 295 295 296 296
319 321 322 322 318 319 326 324 317 320 324 323 327 328 323 320 327 332 330 328 330 331 330 329 331 331 331 333 334 334 335 337 337 336 334 332 331 331 328 324 323 323 322 321 321 319 318 316 315 315 314 313 313 312 312 312 311 311 310 309 309 308 308 308 307 306 306 305 305 305 305 305 305 304 304 304 303 302 301 301 299 297 295 295 295 295
320 320 320 319 315 317 326 326 318 320 325 323 323 324 322 323 331 336 332 327 328 332 331 329 330 331 331 332 332 333 337 341 338 334 332 330 329 328 326 324 322 321 320 319 319 318 318 316 315 314 313 313 312 312 311 311 311 310 309 309 308 308 308 307 307 306 306 305 305 305 305 305 304 304 304 304 304 303 302 302 301 299 295 294 295 295
316 319 321 320 319 321 325 322 318 324 330 326 324 325 324 323 328 337 338 331 329 333 333 331 331 330 330 332 332 331 334 337 335 332 330 329 328 326 324 323 321 320 319 318 318 318 317 316 315 313 313 312 312 311 311 311 311 310 309 309 308 308 308 307 306 306 305 305 305 305 304 305 304 304 304 304 304 303 303 302 302 301 297 294 295 296
313 317 321 323 320 318 320 325 326 328 330 327 326 328 328 326 329 337 338 332 330 333 333 333 334 332 329 330 331 331 332 331 331 330 329 328 327 325 323 322 320 319 318 318 318 318 317 316 315 313 312 312 311 311 311 311 311 309 308 308 308 307 307 307 306 305 305 304 304 304 304 304 304 303 304 304 303 304 303 302 302 301 298 296 297 298
315 316 320 323 323 320 321 326 327 326 328 330 328 327 327 327 329 335 337 332 330 334 336 336 336 333 331 330 330 331 331 330 329 328 327 326 325 323 322 321 318 318 318 317 317 317 317 316 314 312 312 311 311 311 311 311 310 309 308 308 307 307 307 306 305 305 304 304 304 304 304 304 303 303 303 303 303 303 303 303 302 300 298 298 299 299
319 319 321 321 324 327 326 326 325 323 326 330 329 327 328 327 327 331 334 330 328 334 340 341 337 333 330 330 331 331 330 329 328 328 326 324 323 322 321 320 318 317 317 317 316 316 316 315 313 312 311 311 311 311 311 310 310 309 308 307 307 306 306 306 305 304 304 304 303 303 303 303 302 303 303 303 303 302 301 301 300 299 298 299 300 300
319 320 324 324 326 328 323 322 327 327 326 328 330 328 327 328 328 329 331 330 329 332 335 335 333 330 329 329 330 329 328 327 326 327 326 323 322 321 321 320 317 316 316 317 316 316 315 314 312 312 311 310 311 311 310 310 309 309 308 307 306 306 305 305 304 304 303 303 303 303 303 303 302 302 302 302 302 300 298 298 298 298 299 300 300 300
318 321 324 323 326 327 322 321 325 325 323 327 329 329 328 328 329 330 331 332 332 333 334 333 329 327 327 328 327 327 327 326 325 324 324 323 321 320 320 318 316 316 316 316 315 315 315 313 312 311 311 310 310 310 310 309 308 308 307 306 306 306 305 304 304 304 303 303 303 302 303 302 302 302 302 302 302 300 299 299 300 300 300 301 301 301
320 322 323 323 328 331 330 328 326 325 328 329 326 326 328 328 329 332 333 332 330 331 334 337 333 328 326 324 324 327 327 325 323 323 323 322 321 319 317 316 315 315 316 315 315 315 314 313 312 311 310 310 310 309 309 308 307 306 306 306 306 305 304 303 303 303 302 302 302 302 302 302 302 302 302 302 302 301 301 301 302 301 301 301 301 301
320 320 322 326 330 328 327 327 325 326 330 329 326 327 329 328 331 333 330 329 330 330 333 338 339 336 331 323 319 322 325 323 321 322 322 320 318 317 316 315 315 315 315 315 314 314 313 312 311 310 310 309 309 308 307 307 306 305 305 305 305 305 304 303 303 302 302 302 302 302 302 302 302 302 302 302 302 302 301 301 301 301 301 301 301 302
Wind_Speed
5 4 7 9 8 10 10 9 7 5 4 7 5 5 6 5 4 5 6 7 7 7 7 8 9 8 8 10 10 7 6 6 8 9 9 10 9 8 8 8 9 9 7 9 14 17 17 18 19 20 22 23 23 25 27 26 25 23 23 23 22 22 24 27 30 30 30 28 25 22 20 17 15 13 12 10 8 7 8 9 10 11 11 11 11 11
5 8 9 7 6 8 9 8 8 8 5 4 4 4 4 5 4 6 6 6 5 6 5 7 9 8 6 8 7 7 8 9 11 13 11 11 10 8 8 8 8 7 6 8 10 13 15 14 16 18 20 23 23 23 24 24 22 22 22 22 22 23 25 28 30 30 29 26 24 22 19 17 15 13 12 11 10 11 13 14 14 14 14 13 13 12
6 9 7 6 5 6 7 8 9 10 8 3 3 3 3 4 3 5 5 3 3 5 4 6 9 4 2 5 4 5 6 6 8 10 10 11 12 10 10 9 10 9 8 9 9 12 14 14 16 18 20 22 22 21 21 20 20 21 22 22 22 24 25 27 28 28 26 24 22 20 18 17 16 13 12 13 14 15 17 17 16 15 15 14 13 12
6 5 6 7 6 7 7 8 10 8 6 4 4 4 3 3 2 3 4 1 3 3 3 7 5 1 3 4 4 2 2 3 4 4 4 7 9 10 9 9 12 13 11 10 9 11 14 15 17 19 20 20 20 19 19 19 20 21 21 23 24 25 24 25 26 26 25 22 19 18 18 17 16 15 16 18 18 19 19 18 17 15 14 13 12 11
4 3 8 8 7 8 7 8 11 8 5 4 4 5 3 3 3 3 4 2 3 2 4 8 4 3 1 4 4 1 1 5 5 5 6 6 5 6 6 7 10 11 11 11 12 11 12 15 17 18 19 18 18 18 19 20 21 21 22 23 24 24 23 24 24 25 25 22 20 19 19 17 17 19 21 22 21 20 20 18 16 14 12 11 10 9
5 5 9 11 9 9 7 7 10 8 5 4 3 6 6 5 4 3 2 3 4 1 2 6 3 3 1 3 5 2 2 5 5 6 10 9 8 8 9 9 10 9 10 10 11 11 11 14 17 17 17 18 18 18 19 20 21 22 23 23 24 23 23 23 23 23 24 23 22 22 22 21 22 21 21 23 22 20 19 17 15 13 10 9 8 7
5 7 8 13 11 10 8 6 9 9 6 3 5 8 7 6 4 3 1 3 5 4 4 3 5 3 1 2 6 5 4 6 5 7 11 10 9 10 9 9 10 10 10 9 8 10 10 12 15 16 17 19 18 19 20 20 21 22 22 23 23 23 22 22 22 22 23 23 24 24 25 25 25 22 20 21 22 20 19 17 15 13 10 8 7 6
8 10 9 13 12 10 9 6 7 10 7 3 6 9 8 6 6 5 3 3 3 2 4 1 5 2 2 4 6 7 6 7 7 9 11 11 10 11 10 9 11 12 12 10 9 10 8 10 15 17 18 19 19 20 20 20 21 21 21 21 21 21 22 22 22 21 22 23 22 22 24 24 23 23 22 22 22 20 18 16 14 12 10 8 6 5
9 12 10 13 11 8 7 5 7 10 7 4 6 9 8 8 6 4 4 2 1 1 4 2 5 3 4 4 4 7 7 8 10 12 13 13 13 13 11 11 12 12 12 11 11 10 9 11 17 19 18 19 19 20 21 21 21 21 21 21 21 21 22 21 21 21 21 22 21 22 23 22 21 23 24 23 22 20 18 16 14 11 10 8 7 6
7 10 9 11 10 7 6 5 8 11 7 3 6 6 4 4 5 5 4 2 1 0 4 5 5 3 3 4 4 6 7 9 10 11 12 12 13 13 12 12 12 11 10 10 10 10 11 14 18 19 19 19 19 19 21 22 21 21 22 23 22 22 22 21 21 20 20 21 22 24 25 24 23 24 24 22 21 21 18 16 14 12 10 9 9 9
4 7 8 7 7 6 7 5 7 10 8 5 5 3 3 2 1 2 2 3 2 4 6 7 7 5 2 5 5 7 10 13 11 9 10 12 13 14 13 12 12 11 9 9 9 9 12 16 18 19 19 19 19 19 20 21 22 22 22 23 23 21 21 21 20 19 18 19 22 24 26 27 27 27 26 24 22 20 19 17 14 12 11 11 11 11
5 6 7 5 6 7 7 5 5 8 9 7 5 3 2 2 2 3 3 2 4 6 6 6 7 7 5 6 5 10 14 14 13 12 15 16 16 15 13 13 13 12 11 10 10 9 11 13 15 19 18 18 21 21 20 22 23 23 23 23 22 20 20 20 18 18 18 18 21 24 27 28 29 28 27 25 23 21 18 17 15 13 12 12 12 12
6 4 5 6 8 10 9 6 5 6 8 7 5 6 4 1 1 2 2 2 4 5 4 6 8 5 6 6 7 14 15 13 14 15 17 19 18 16 14 13 12 11 12 11 10 10 9 9 12 17 19 19 22 22 22 23 24 23 23 23 22 19 19 19 17 18 18 18 21 25 27 28 28 27 26 25 23 20 18 16 15 14 14 14 14 15
3 3 4 7 7 10 11 8 7 7 8 8 7 7 6 4 4 5 3 1 2 4 3 5 8 3 4 4 9 17 19 16 14 13 13 14 14 13 12 12 11 11 12 11 10 10 9 10 13 17 19 19 20 22 23 24 24 24 23 22 21 18 18 18 17 18 20 21 23 25 25 27 27 26 25 24 22 20 17 16 15 15 15 16 17 17
5 3 6 8 6 10 13 10 7 6 6 7 5 6 5 4 5 4 3 3 3 3 2 2 5 4 3 4 8 14 15 9 6 5 7 8 9 10 9 10 10 11 12 11 10 10 9 12 16 18 19 19 20 22 24 24 24 24 23 22 21 20 18 19 18 20 22 24 24 24 25 25 25 25 24 23 21 19 18 17 16 16 16 18 19 18
5 4 5 7 5 12 14 8 7 7 5 5 4 6 5 5 5 2 3 6 4 2 2 2 3 4 4 4 6 5 9 7 7 8 10 10 10 11 10 10 10 10 12 11 10 10 10 13 17 18 19 19 21 23 23 24 24 24 23 22 22 21 20 20 21 23 24 25 25 25 25 25 25 25 24 23 21 20 18 17 17 18 18 19 19 19
5 3 5 8 7 11 14 10 8 7 5 4 4 5 5 5 5 3 2 1 4 4 4 2 2 2 0 4 6 6 11 9 9 10 11 12 13 13 12 11 10 10 13 12 10 10 10 13 17 19 19 20 21 23 23 23 24 25 24 23 23 22 21 22 24 25 26 26 26 25 25 25 25 24 23 23 22 20 18 17 18 19 20 19 19 19
6 3 5 10 9 9 13 12 9 6 6 6 5 6 3 3 2 2 2 2 4 4 4 1 4 2 2 2 4 5 9 9 10 11 11 13 14 14 13 13 11 11 13 13 11 11 10 12 17 19 19 20 22 22 23 23 24 25 25 25 26 25 24 24 25 26 27 27 27 26 25 25 25 24 23 23 22 20 19 20 20 21 21 20 20 19
4 2 4 8 11 7 9 12 8 6 6 5 6 6 4 4 2 1 2 1 2 3 3 0 2 2 4 4 3 7 11 10 11 12 13 15 16 14 13 13 12 10 12 12 11 10 9 11 17 20 19 19 21 22 23 23 24 25 26 27 28 27 26 26 26 27 27 27 27 26 26 25 25 24 24 23 22 20 21 22 22 22 22 22 20 20
0 3 2 6 11 7 5 8 8 8 6 3 5 6 3 3 4 3 3 3 3 3 3 0 1 2 5 6 9 14 15 15 14 13 15 17 17 14 12 13 12 11 11 11 10 9 9 12 18 21 20 20 22 23 24 25 26 27 26 27 28 28 27 26 26 27 27 27 27 26 26 25 25 25 24 23 21 21 22 23 23 23 23 23 20 20
2 2 2 3 6 8 5 7 9 10 8 5 5 6 4 2 3 2 1 2 3 3 3 2 0 5 6 5 12 16 15 16 17 16 14 15 15 14 13 13 12 11 11 11 11 10 9 12 18 21 21 21 22 24 25 26 27 27 27 27 29 29 28 26 26 27 27 27 27 26 26 25 25 25 23 22 22 23 23 23 23 24 23 22 20 19
1 1 2 1 4 7 6 6 8 10 9 7 5 5 6 5 4 3 2 2 2 3 4 5 3 6 6 4 10 13 13 16 18 17 15 14 16 15 14 14 14 12 12 13 13 12 10 12 17 21 21 22 23 24 25 26 27 27 27 27 28 29 29 27 26 27 27 27 26 26 26 25 25 24 23 23 23 23 24 24 24 24 22 21 19 18
3 1 1 2 4 5 5 6 10 11 9 7 5 4 6 6 5 6 5 3 1 2 2 4 3 5 6 4 5 6 6 9 11 13 13 14 16 15 14 15 14 12 12 13 13 12 11 14 18 21 21 22 23 24 25 25 26 28 27 27 27 28 28 26 26 26 26 26 25 25 25 24 23 23 23 23 24 24 24 24 24 22 20 20 19 18
3 1 0 1 2 1 1 4 7 7 7 6 4 3 6 7 5 5 5 4 4 3 2 4 2 5 6 3 1 2 2 3 4 6 9 10 11 12 14 15 14 12 12 13 12 11 11 15 18 20 20 21 22 23 24 24 25 28 28 27 27 28 27 26 26 25 25 25 24 23 23 23 23 24 24 24 24 25 25 24 23 21 19 19 19 20
2 2 2 3 4 3 3 5 5 3 4 4 3 3 6 8 7 4 2 3 3 4 5 5 3 6 6 4 3 5 6 6 6 6 9 9 9 10 11 12 13 12 11 12 12 11 12 13 14 17 20 20 21 23 24 24 25 27 27 27 27 27 26 26 26 25 25 24 24 24 24 25 25 25 24 25 25 25 25 24 22 20 18 18 20 22
1 2 4 4 6 6 5 6 6 5 4 2 3 5 5 7 9 6 2 3 2 3 4 5 4 6 5 3 5 6 7 8 7 8 10 10 11 12 11 11 12 11 11 12 12 11 11 11 11 15 20 20 21 23 24 24 25 26 27 27 28 28 27 27 26 26 26 26 26 27 27 27 26 26 25 26 26 25 24 23 21 19 18 18 22 25
0 2 4 5 7 7 6 6 5 5 6 3 3 6 5 5 7 6 5 3 4 3 2 4 5 3 3 1 6 6 8 9 8 11 12 11 12 12 11 11 11 10 10 11 11 11 12 12 11 14 20 21 21 22 24 25 25 27 27 27 28 28 28 28 27 27 27 28 29 29 29 28 27 27 27 27 27 25 23 21 20 19 19 20 24 27
2 2 4 6 7 7 6 6 6 7 8 6 6 5 5 6 6 7 5 5 5 6 1 7 5 6 6 8 9 9 9 9 9 11 13 13 13 13 12 12 13 12 11 11 12 13 14 13 11 13 19 22 21 22 24 24 24 26 28 28 28 28 29 28 28 29 29 29 30 30 30 29 29 29 29 28 27 25 22 21 19 19 21 23 25 27
3 1 2 4 4 4 4 7 8 8 7 7 8 7 7 8 8 7 6 6 6 6 5 7 8 8 8 9 10 10 9 11 12 11 11 12 13 13 13 14 15 13 12 13 14 14 14 14 12 12 18 23 23 24 24 23 23 26 29 29 29 29 29 29 30 30 31 30 30 30 30 30 30 30 30 28 27 24 22 21 20 21 23 24 26 28
4 1 2 3 4 3 3 5 8 8 7 5 5 6 8 8 7 5 5 5 5 4 4 7 8 6 7 6 6 3 3 6 7 8 9 11 13 14 15 15 16 15 14 14 15 15 15 14 13 14 18 22 24 24 24 24 24 26 29 30 29 29 30 30 31 31 31 30 30 30 30 30 31 30 30 29 27 25 22 21 22 23 24 25 27 28
3 0 3 3 5 5 6 5 7 8 8 6 3 4 7 7 4 3 4 5 4 4 3 6 5 4 5 3 3 3 5 7 8 8 10 11 12 14 14 14 15 15 14 14 14 14 14 14 14 15 18 23 26 25 24 24 25 27 29 29 29 30 30 31 31 30 30 30 29 30 30 31 31 31 30 29 27 25 22 22 22 24 25 27 28 27
3 1 2 4 5 3 6 5 7 7 9 8 5 3 7 6 3 2 3 5 5 6 6 7 3 4 4 3 6 5 6 9 9 10 10 10 12 14 14 13 14 14 15 14 14 14 16 16 16 17 20 24 26 25 25 26 26 27 29 30 30 31 31 31 31 30 29 29 29 30 31 31 31 31 30 29 27 25 22 22 23 25 27 27 27 27
2 2 2 3 4 3 5 2 7 8 8 3 2 4 6 4 3 2 2 3 6 8 7 4 5 5 3 5 6 5 6 8 10 11 12 12 12 12 12 13 13 14 16 16 16 17 17 17 18 20 22 24 25 27 28 29 29 28 30 31 32 32 31 30 30 29 29 30 30 30 31 31 31 31 30 29 28 25 23 23 24 26 27 27 27 27
2 3 2 2 4 2 5 1 7 7 4 3 6 5 6 3 5 6 2 2 3 3 4 4 4 5 7 7 8 8 8 7 6 7 9 12 13 12 12 12 12 13 14 14 15 14 13 14 17 20 22 24 26 28 29 32 33 33 33 33 33 32 31 30 30 30 30 30 31 31 31 32 31 31 30 30 28 25 23 23 24 26 26 27 27 26
3 3 2 1 4 3 2 2 7 4 5 6 6 4 4 5 7 10 5 3 2 2 2 5 7 10 11 8 6 6 4 3 4 2 3 8 12 13 14 12 12 13 13 12 13 13 13 16 20 22 24 26 28 29 30 31 32 32 33 33 33 32 31 30 30 30 31 31 31 31 32 32 32 31 31 30 28 26 25 24 24 25 26 26 26 26
3 2 2 2 3 3 2 4 5 5 5 5 5 3 2 2 5 8 6 6 4 3 0 3 6 9 8 4 5 5 5 6 6 5 1 5 9 12 14 14 14 16 16 16 17 18 19 23 25 26 27 27 28 30 31 31 31 31 31 32 32 31 31 31 30 30 31 31 31 31 31 31 32 32 31 31 29 27 26 24 24 24 25 26 26 25
4 3 2 3 2 3 4 2 1 1 4 5 3 1 1 1 1 5 4 3 4 1 2 2 3 5 7 6 6 6 7 7 5 2 1 5 8 9 11 12 14 16 16 17 19 20 22 24 25 25 26 27 29 31 32 33 32 31 31 31 31 30 30 31 30 30 30 31 31 32 32 33 33 32 32 31 30 28 26 25 24 23 24 26 26 25
5 4 3 3 2 2 5 3 3 4 2 4 5 5 4 4 3 5 6 2 5 1 3 4 6 6 7 8 8 7 7 5 1 3 4 6 7 8 8 8 10 13 14 16 18 20 22 23 25 27 27 27 28 30 31 32 32 31 30 30 31 31 30 30 30 30 31 31 32 32 33 33 33 33 32 31 30 29 27 25 24 23 23 25 26 26
7 5 3 5 3 2 5 4 2 2 1 5 8 9 6 2 2 4 6 3 6 3 2 5 8 7 8 10 10 9 7 3 5 7 6 8 8 9 10 9 9 12 16 21 23 23 23 25 26 28 28 26 26 28 30 31 31 31 29 29 30 31 30 31 32 33 34 34 35 35 34 33 32 32 32 31 30 29 27 26 25 24 23 24 26 26
6 5 4 5 4 2 4 3 1 2 1 4 7 8 5 2 6 6 3 5 7 5 2 5 9 8 8 10 9 8 8 6 7 7 8 10 8 8 10 11 11 13 16 19 22 24 25 27 28 28 28 28 28 30 32 33 31 30 28 28 30 30 31 33 35 35 34 35 35 36 35 34 33 32 31 30 29 28 27 26 25 24 24 25 25 26
4 4 3 4 3 3 4 3 0 2 3 4 6 7 5 3 7 5 4 7 5 5 3 5 8 7 8 10 9 8 7 4 2 2 8 11 9 9 10 12 15 17 19 21 23 24 25 26 28 29 29 31 32 32 34 35 31 28 28 28 29 29 31 34 34 32 32 32 34 34 34 35 35 31 28 28 29 29 28 26 25 25 26 26 26 26
1 2 3 2 3 3 3 3 1 2 3 4 5 6 3 3 2 3 5 4 3 4 4 3 8 8 8 11 10 5 1 2 2 5 11 12 10 9 9 11 14 16 20 24 27 28 26 24 25 26 26 29 33 34 35 35 32 29 28 28 28 28 31 32 32 31 32 33 33 33 33 34 34 32 29 28 29 30 29 27 26 25 25 26 26 26
2 2 1 1 2 2 3 3 2 1 4 4 4 4 4 2 4 5 2 2 3 4 1 3 7 8 8 10 9 2 3 3 3 6 9 10 9 9 10 12 14 14 18 23 26 29 29 25 24 26 26 27 31 32 33 33 30 29 28 27 27 28 31 32 32 32 33 33 33 33 34 33 32 32 32 31 30 30 29 28 27 25 25 27 27 26
1 2 1 2 2 3 3 1 2 4 5 4 0 2 1 2 5 5 3 2 1 1 2 3 5 7 8 10 9 4 2 1 3 6 8 9 9 9 10 11 13 15 19 23 25 27 28 26 24 25 27 29 31 32 33 33 30 29 28 27 28 30 32 33 33 33 33 34 33 33 33 32 32 32 33 33 31 30 29 29 28 26 26 27 28 27
1 2 3 3 1 2 3 4 5 4 4 4 1 4 3 1 2 5 5 3 2 0 2 2 3 6 7 7 8 6 3 2 4 7 9 10 10 10 11 12 15 18 20 22 25 27 27 26 25 25 26 28 31 32 33 34 33 31 28 28 31 33 34 34 34 34 33 33 33 33 33 33 33 33 34 33 32 31 30 30 29 28 28 29 28 27
3 3 4 3 0 0 1 2 2 2 3 4 3 2 1 1 2 3 5 4 1 3 2 1 2 5 7 6 7 7 5 5 6 7 8 8 8 9 10 11 15 20 23 23 25 27 26 25 26 26 26 28 30 31 30 31 32 32 31 31 33 34 35 35 35 34 33 33 33 33 34 33 33 33 33 33 32 30 30 31 30 30 31 30 28 26
3 1 3 3 2 2 1 2 3 3 3 5 5 3 2 3 2 2 4 3 1 3 5 4 2 3 6 7 9 10 8 7 8 7 6 7 8 10 10 11 14 19 23 25 27 29 28 26 25 26 27 27 30 31 29 28 29 31 32 32 34 34 35 36 35 34 33 34 33 33 34 34 33 34 34 33 32 30 30 30 32 33 33 30 28 27
2 3 3 2 2 2 2 5 5 4 5 5 3 1 1 3 3 2 2 2 2 1 3 5 4 1 3 6 9 9 7 7 9 9 8 8 8 9 10 11 14 18 21 25 29 30 28 26 26 26 26 27 28 30 30 28 28 30 32 33 34 36 35 35 35 34 34 34 34 34 34 35 34 34 34 33 32 31 31 32 33 33 32 30 28 27
2 3 2 2 2 2 2 4 2 3 4 5 4 3 3 2 2 3 3 4 4 3 1 3 5 2 1 4 6 6 7 7 8 9 9 9 8 9 9 11 14 17 19 23 27 28 26 25 25 25 25 25 27 28 28 28 28 31 33 34 36 37 36 34 34 34 34 33 34 33 33 34 34 35 34 33 33 32 32 32 31 29 28 27 25 24
2 2 1 3 4 1 3 3 2 3 1 4 4 4 5 3 1 3 4 4 4 2 1 0 4 5 3 1 3 6 7 7 6 7 8 8 8 9 10 12 15 17 19 21 23 23 23 23 25 26 25 25 26 27 27 27 29 31 33 36 37 38 37 35 34 33 33 33 33 33 33 33 34 34 34 33 33 32 31 30 28 27 26 25 24 22
1 2 2 3 4 4 6 5 3 3 1 4 4 4 5 2 3 5 3 2 2 1 4 4 1 3 4 5 2 4 6 5 6 7 6 5 5 7 8 11 14 15 18 22 22 21 21 22 24 25 25 25 26 27 26 27 29 31 33 36 37 37 36 36 34 31 31 32 33 33 34 34 33 33 33 33 33 32 31 29 27 26 25 25 24 22
Wind_Direction
161 185 206 202 202 193 192 180 193 239 146 146 155 151 167 167 211 220 219 228 168 157 204 186 184 192 174 181 181 162 152 159 162 160 169 170 166 171 172 172 172 172 166 158 173 184 188 190 186 184 184 181 182 184 186 186 185 188 192 193 190 187 184 177 170 167 167 167 167 168 169 171 172 175 175 168 164 161 156 152 148 151 153 149 145 144
169 206 215 201 199 182 180 164 175 231 222 146 155 164 174 172 210 228 217 229 179 162 211 179 175 196 178 174 176 153 156 174 175 170 174 172 167 171 174 173 168 162 153 156 173 186 188 189 186 182 176 175 177 180 183 183 182 187 190 190 187 181 178 176 171 168 169 171 172 170 169 171 167 166 166 155 148 148 144 143 144 145 144 143 140 141
202 215 198 181 189 158 164 165 168 214 229 189 164 150 175 195 219 252 251 252 168 170 217 179 173 190 123 129 142 160 174 185 189 184 178 172 170 175 179 175 169 164 163 167 172 182 185 182 181 179 174 176 178 178 179 178 179 183 185 185 183 178 176 175 173 172 172 173 176 176 172 169 160 150 150 146 144 147 145 140 140 140 140 142 141 141
206 208 172 171 185 162 163 172 171 200 224 193 157 146 203 223 176 225 259 285 139 151 161 156 154 60 59 98 126 186 193 141 169 193 173 176 180 182 183 174 172 172 170 171 172 178 180 176 178 179 176 177 177 175 173 173 176 177 180 182 180 178 176 174 174 175 175 173 173 172 166 162 152 141 141 141 140 143 140 134 134 136 138 142 141 142
242 209 163 166 188 179 168 175 177 188 208 195 159 156 197 211 172 215 240 178 119 79 119 121 82 343 104 132 160 222 161 142 150 154 158 185 197 186 185 183 184 181 173 172 171 174 174 173 178 178 175 175 174 173 169 170 173 173 177 181 180 178 175 175 176 176 177 174 168 161 155 150 141 137 139 135 132 134 134 132 131 132 136 140 140 141
254 242 166 169 195 188 174 185 183 176 184 211 198 176 185 188 195 272 274 158 135 262 219 126 102 283 180 150 200 211 176 166 155 157 169 183 187 186 191 189 192 189 182 178 172 171 170 169 174 174 172 173 173 171 169 171 173 173 177 180 180 178 175 177 179 179 180 178 172 163 152 144 139 137 137 135 133 132 132 131 130 129 133 139 139 137
225 238 184 175 190 189 189 198 188 171 156 208 217 185 188 194 204 249 250 149 168 220 255 165 160 239 295 221 217 200 183 183 170 169 178 185 187 193 197 187 185 187 185 182 172 170 167 162 167 170 173 173 171 171 171 173 175 175 176 178 179 177 178 180 180 183 184 181 176 167 156 149 145 141 137 138 139 137 134 133 133 132 131 133 134 132
187 212 200 181 182 190 199 200 186 168 150 220 214 173 179 196 202 208 170 146 184 229 302 241 137 139 262 231 196 177 178 186 188 185 185 191 194 198 198 186 184 187 183 177 172 171 165 160 167 172 174 173 170 170 172 173 174 175 173 174 179 179 181 184 183 185 184 176 166 158 152 147 147 144 139 140 139 138 138 136 134 132 129 126 122 123
179 201 199 182 185 194 193 177 163 156 157 213 190 164 179 192 189 186 166 155 115 35 310 271 122 125 261 259 158 162 182 195 203 202 196 194 195 197 195 185 186 188 183 178 174 173 168 165 173 175 173 172 169 169 172 174 174 174 172 176 182 184 184 185 185 183 179 172 162 156 152 146 146 145 142 142 140 140 142 137 133 131 126 120 115 118
180 194 190 181 191 188 166 161 157 159 170 175 151 143 145 166 173 180 188 178 84 188 241 217 153 138 269 266 162 160 194 206 210 209 202 197 194 195 190 183 186 185 180 179 175 173 170 171 175 175 170 170 168 167 171 174 174 174 175 178 181 183 185 185 185 182 175 173 172 167 160 152 148 145 143 143 141 141 143 137 134 130 123 120 117 119
202 176 182 185 187 164 150 164 164 164 168 147 140 127 68 54 136 154 159 116 142 246 238 202 172 151 238 256 189 178 200 199 199 202 200 200 196 192 187 182 183 181 176 175 172 167 166 169 171 170 168 165 162 161 165 170 174 176 177 177 177 179 183 183 183 181 175 173 173 169 163 156 152 151 150 149 144 144 144 139 135 131 126 123 120 119
250 178 181 170 156 148 149 174 176 171 172 155 141 133 110 329 2 45 23 94 178 248 251 198 169 159 215 252 202 204 212 197 191 195 193 194 193 188 185 181 180 178 171 170 170 166 162 162 164 165 163 158 157 160 163 167 174 177 177 176 174 175 180 182 181 179 176 176 174 169 164 160 158 159 158 154 149 149 148 143 138 135 131 127 123 120
254 212 184 151 157 162 159 173 178 180 183 166 147 144 154 195 191 193 227 189 204 246 245 177 154 170 231 243 205 208 215 201 195 200 194 190 188 184 181 177 175 171 166 168 171 169 163 159 158 159 158 156 158 163 166 167 173 176 177 176 172 172 178 180 178 177 176 177 175 168 163 161 162 163 161 158 155 154 152 148 144 139 134 128 124 121
220 262 207 170 168 173 172 178 182 187 186 177 167 164 167 162 170 199 213 207 219 239 244 168 159 200 258 247 210 206 209 202 198 202 193 183 178 174 172 170 168 165 164 168 171 169 165 161 158 156 160 162 163 167 168 168 171 173 174 176 172 169 175 176 174 175 173 171 171 167 164 164 163 161 161 160 158 156 154 150 146 141 134 127 124 123
169 234 217 187 170 173 183 189 173 156 169 181 153 137 160 169 166 187 193 182 201 235 278 149 166 193 194 237 235 211 204 191 171 165 149 149 155 156 158 163 166 167 164 167 170 166 162 160 156 156 163 168 167 167 167 167 170 171 171 174 171 167 170 171 171 172 170 167 167 168 168 167 165 163 162 161 159 157 154 150 146 139 131 127 126 127
178 240 216 192 179 171 181 191 159 131 156 184 117 122 181 186 152 135 172 174 167 199 252 168 194 217 196 276 303 180 162 140 126 127 128 138 150 153 159 166 169 168 165 168 169 161 158 157 155 159 167 170 167 165 166 167 168 169 170 172 171 168 168 168 168 170 169 167 167 169 169 168 167 166 162 159 158 156 153 150 145 138 133 131 131 130
170 261 214 185 196 182 174 180 178 161 163 168 142 171 198 168 137 124 195 172 109 157 232 198 199 286 274 313 337 114 135 134 135 138 141 149 155 159 166 170 173 169 164 169 168 159 158 155 156 163 168 167 165 164 165 167 167 169 170 169 166 165 165 166 167 168 168 168 168 169 170 169 169 167 164 161 157 154 150 148 145 140 137 137 135 133
155 255 242 183 195 202 173 172 191 184 153 150 187 205 176 114 109 108 155 356 70 164 250 204 169 194 150 258 323 112 138 149 147 146 150 155 162 170 173 173 173 165 161 165 164 159 156 152 156 164 168 167 165 164 164 165 165 167 169 167 164 161 161 164 165 166 168 168 168 168 169 169 168 167 165 161 156 152 149 147 147 145 142 141 139 137
155 197 264 189 187 202 169 166 193 209 174 153 182 192 149 146 195 125 150 172 128 178 250 306 172 199 184 202 199 156 164 169 156 151 158 166 173 175 172 172 169 158 156 160 158 157 156 154 158 162 164 164 163 163 162 161 161 163 165 165 163 161 160 162 163 164 166 167 167 167 167 167 166 165 162 158 154 152 150 149 149 147 144 142 141 140
200 144 217 198 178 163 155 170 188 204 200 170 170 178 161 149 166 166 162 164 165 185 208 215 356 249 222 205 185 182 181 172 162 165 172 175 176 172 168 170 167 160 158 156 154 156 156 156 158 160 161 161 160 158 158 158 158 160 161 160 159 159 159 160 162 163 164 165 166 165 164 163 162 162 159 155 154 153 152 150 149 146 144 143 142 142
312 145 189 215 158 143 170 197 187 183 184 184 175 172 174 157 140 148 162 150 144 159 177 159 252 262 250 202 187 190 183 172 171 175 178 175 171 169 166 165 165 163 158 155 157 159 157 155 154 155 158 157 154 153 154 156 156 157 158 156 157 158 159 161 161 163 163 163 164 162 160 160 159 158 156 154 155 155 153 151 148 146 144 143 142 142
228 185 165 175 153 162 191 193 168 163 169 172 170 175 185 178 130 133 204 247 118 144 173 151 179 262 266 204 196 196 184 180 178 174 171 170 168 166 165 164 163 162 158 157 160 160 158 154 149 149 150 150 150 149 151 154 154 154 155 155 156 157 160 163 162 162 161 160 161 160 159 158 157 157 155 155 155 154 152 150 148 147 145 142 141 142
165 125 130 185 185 193 202 169 154 156 153 154 170 186 181 171 132 136 189 230 152 160 167 125 154 259 270 241 213 206 191 187 179 169 167 169 168 163 160 161 160 159 158 156 157 158 157 152 147 145 145 147 149 149 151 154 154 153 154 156 157 156 159 163 162 161 159 158 158 158 157 157 156 156 156 155 154 152 151 149 148 149 147 143 141 142
165 174 275 197 182 231 20 107 135 146 134 140 184 180 164 180 171 148 170 182 162 179 153 110 178 256 281 296 173 98 80 110 126 143 153 157 160 158 157 159 158 157 155 153 152 152 151 148 145 144 145 147 150 150 152 155 154 152 154 157 157 157 160 163 161 160 159 158 157 157 158 157 156 156 155 153 152 150 149 149 149 151 148 144 143 144
192 222 140 135 136 111 86 107 128 166 159 160 185 164 162 177 166 145 133 102 134 196 156 129 196 249 289 344 86 105 97 101 102 112 133 144 150 154 157 157 157 154 151 150 148 145 145 146 146 148 148 150 152 152 153 156 154 153 155 156 154 156 159 161 161 161 161 159 157 157 157 156 156 155 154 152 151 150 150 150 151 151 148 146 146 145
236 212 143 148 158 154 159 170 176 179 170 159 152 149 158 161 156 163 142 93 150 201 135 134 198 255 301 24 108 122 112 111 116 124 137 151 155 155 156 155 155 154 152 150 145 143 143 143 146 150 149 151 154 153 154 157 156 153 154 154 155 156 157 159 162 162 161 160 157 155 155 155 156 156 154 153 152 151 152 152 152 151 149 149 148 146
87 207 169 155 161 167 181 200 193 144 128 144 152 143 148 149 140 131 116 137 184 158 136 208 196 209 287 177 143 152 144 137 139 142 147 156 159 156 153 151 151 151 151 148 144 144 143 143 151 154 150 151 154 155 158 160 157 154 152 152 155 159 159 160 162 162 161 159 156 155 155 156 157 157 156 154 153 152 152 153 153 152 150 150 150 147
129 235 199 153 160 179 175 170 164 129 128 158 162 139 140 142 121 111 136 188 165 122 242 254 189 163 213 206 180 174 162 150 154 159 160 161 160 156 151 149 149 149 151 151 150 151 149 147 153 157 151 150 155 159 161 161 158 155 152 152 157 160 160 161 161 160 158 158 156 156 156 157 158 157 156 154 152 151 150 151 152 149 148 149 149 147
140 224 196 137 151 188 156 144 147 132 130 157 161 145 137 144 145 146 176 195 152 139 213 219 178 180 210 206 191 180 168 165 167 165 161 155 153 153 153 153 153 152 153 155 156 156 154 151 155 160 155 152 158 163 162 159 158 153 151 155 161 162 161 162 160 158 157 157 157 158 158 157 156 156 155 153 151 149 148 148 147 145 146 147 147 147
128 322 288 116 104 50 44 110 131 126 122 135 154 148 135 146 167 163 163 166 135 131 190 167 162 206 227 210 201 180 132 143 145 140 145 153 158 158 159 160 159 157 156 158 160 160 158 155 156 161 159 157 163 167 162 158 157 154 154 159 162 162 162 162 160 158 158 158 159 160 159 157 155 154 154 152 150 148 146 145 145 144 145 145 146 146
115 289 298 77 85 30 13 61 100 116 126 116 83 91 104 115 140 135 133 142 108 80 100 116 124 253 253 184 126 81 100 118 128 141 151 160 164 161 160 162 160 157 156 157 159 158 157 156 158 165 168 166 167 167 162 158 157 156 156 159 161 162 162 163 161 159 160 160 160 160 159 157 155 154 154 152 150 148 145 145 145 145 144 144 144 144
60 68 2 56 81 17 4 65 90 86 99 92 58 77 108 116 155 169 146 153 144 129 109 95 107 248 243 147 111 104 129 138 146 154 154 162 167 164 163 163 159 157 156 157 160 162 163 165 168 173 174 170 167 164 161 158 156 157 158 160 162 162 163 163 162 160 160 160 160 161 160 158 155 154 153 152 150 148 146 146 147 147 146 145 145 145
64 82 53 71 100 22 341 118 116 85 83 78 290 187 146 144 181 156 105 153 157 143 128 142 203 203 156 130 124 129 155 165 171 171 165 165 167 165 165 164 162 163 162 164 169 172 172 172 173 174 173 169 167 166 164 160 159 161 162 161 161 162 162 162 162 160 160 159 160 160 159 158 156 153 152 152 151 148 147 148 149 150 149 147 146 146
54 91 92 91 110 66 311 231 115 93 119 220 252 197 168 193 161 131 117 200 174 144 134 152 168 141 135 152 163 172 184 185 184 184 172 162 162 164 166 166 165 165 165 167 170 172 172 170 169 172 173 171 170 168 166 164 165 166 165 162 161 162 162 161 161 161 159 159 160 160 159 158 156 153 153 153 151 149 149 149 150 152 153 151 150 149
26 56 86 58 97 108 323 55 107 137 212 241 266 239 209 206 146 114 72 13 24 22 97 125 140 158 168 171 160 157 162 126 87 84 168 169 166 162 161 165 165 163 164 165 167 172 175 169 168 172 175 174 171 167 165 167 167 165 162 161 161 162 162 161 160 160 159 160 161 160 159 158 156 155 154 153 152 150 149 149 149 152 155 155 154 152
72 70 95 67 83 113 40 63 126 194 249 292 306 284 209 185 124 92 45 3 3 5 180 166 169 170 161 126 79 82 86 82 71 54 101 175 172 166 165 167 168 168 171 173 175 178 178 173 173 174 174 173 169 165 166 168 167 162 160 160 161 162 162 160 159 160 161 161 160 160 159 158 157 156 156 155 153 152 150 148 149 152 155 156 155 154
97 92 79 61 65 120 112 82 102 327 340 341 339 332 205 253 180 125 105 325 313 16 141 168 152 137 122 94 79 88 84 73 58 19 245 185 178 177 173 169 170 173 176 176 176 176 175 173 172 172 171 169 167 167 168 168 165 161 158 158 160 160 159 158 159 161 161 160 160 160 160 161 160 159 158 158 156 154 152 150 149 151 156 157 155 155
57 63 96 101 55 80 100 74 29 42 15 271 264 277 282 274 232 143 112 330 294 321 123 160 151 136 124 108 103 104 89 77 130 243 223 188 179 174 166 164 169 170 167 165 165 167 170 170 169 169 170 169 167 169 168 165 163 159 157 158 160 159 159 159 160 161 162 163 164 162 161 162 162 161 162 162 160 157 155 152 150 152 155 156 155 155
39 33 74 89 47 37 90 90 86 102 161 248 258 280 289 255 184 99 74 331 284 330 55 162 163 153 144 133 129 126 112 131 228 229 198 181 181 172 161 157 158 163 167 168 167 167 167 166 164 166 168 166 165 168 167 164 162 159 158 161 160 160 161 162 163 166 170 172 170 167 166 165 165 165 166 165 164 161 158 154 151 151 152 153 154 153
25 11 34 66 51 40 84 83 138 171 228 266 270 284 290 111 96 85 93 254 270 315 360 167 167 166 156 143 141 147 153 182 227 226 181 170 171 167 165 164 161 162 164 166 167 166 163 161 161 163 165 165 166 168 166 163 162 162 162 163 163 164 167 168 169 173 174 172 169 169 170 170 168 168 168 168 168 165 162 157 153 151 150 150 150 150
23 14 38 84 70 50 79 89 71 250 259 275 285 291 296 51 70 90 190 232 265 306 295 168 161 166 161 154 161 179 185 197 247 172 157 159 162 166 166 162 159 160 160 160 162 162 161 161 164 166 168 168 167 167 166 164 164 165 165 165 168 171 172 171 171 172 169 168 168 169 170 172 170 169 171 174 173 169 165 162 157 154 151 149 148 147
50 25 26 70 76 52 84 105 78 288 263 267 290 306 335 61 94 195 214 213 237 290 299 167 163 171 173 176 183 193 243 341 38 143 160 163 161 157 151 148 151 156 160 160 162 163 162 163 165 167 169 169 168 169 169 166 165 166 167 170 173 174 172 170 170 169 167 168 169 169 171 172 171 171 176 180 177 171 167 165 163 158 154 151 149 147
143 103 27 237 154 85 59 66 76 221 251 274 307 345 31 100 190 211 197 151 206 247 302 139 168 176 181 192 201 235 347 15 96 151 163 158 150 147 151 155 155 156 159 160 164 167 165 163 165 167 167 168 169 170 170 167 166 167 170 173 174 172 171 171 170 169 168 169 170 171 173 174 174 174 177 180 179 174 171 169 167 164 159 156 152 149
122 129 153 221 180 111 85 93 188 206 244 272 242 142 210 218 195 177 126 83 250 226 120 136 177 185 187 195 204 227 301 34 118 142 151 148 147 151 156 160 158 159 162 163 166 168 166 164 165 165 166 169 170 171 172 171 169 169 171 173 172 170 171 171 170 170 169 170 172 173 174 176 178 178 178 179 179 177 174 172 171 169 165 161 157 154
201 187 165 164 177 151 166 207 220 225 256 277 190 175 216 265 150 148 124 78 18 331 133 139 180 191 192 192 195 209 240 226 168 165 163 161 161 159 160 163 161 160 162 164 166 169 168 166 164 162 165 170 173 174 177 177 173 170 170 171 172 172 171 170 169 170 170 171 173 174 175 176 179 179 179 179 180 179 177 176 175 173 169 166 162 161
236 199 150 128 77 360 133 227 257 286 295 308 318 259 205 76 89 120 104 81 341 284 271 259 182 186 188 185 192 208 215 191 180 180 171 162 160 159 159 162 162 162 164 166 167 169 168 165 163 164 166 172 176 177 179 179 177 172 170 171 173 173 171 170 170 170 170 172 174 175 176 176 177 178 178 179 181 183 183 182 179 175 172 170 169 167
290 120 103 83 66 75 68 296 304 320 308 315 331 341 33 58 73 121 114 116 241 266 266 273 262 186 178 183 199 212 205 178 173 177 169 161 164 167 166 166 168 169 169 168 167 166 166 164 166 168 169 172 177 178 178 179 179 175 171 171 171 171 170 171 170 170 171 173 174 175 176 176 175 176 176 178 182 185 185 184 180 176 174 175 176 175
325 41 65 73 80 105 217 253 270 288 288 292 296 295 26 32 23 39 85 113 129 176 259 288 315 304 183 203 215 213 195 179 178 175 170 171 175 175 174 174 174 172 170 169 168 168 168 168 170 171 171 172 176 177 177 178 178 176 173 171 171 171 171 171 171 171 173 174 174 175 176 176 176 176 177 179 182 183 182 180 179 179 180 182 182 182
327 18 70 103 52 2 251 245 275 321 318 316 309 286 283 308 349 25 59 81 78 71 18 333 340 343 194 219 224 200 177 187 192 178 171 175 178 179 178 174 171 169 168 168 170 171 171 170 170 170 171 172 175 176 177 176 176 176 174 172 172 172 171 171 173 173 173 174 174 174 175 177 178 178 179 180 182 183 183 183 185 187 188 189 189 190
14 30 97 96 74 360 243 225 170 142 228 279 281 293 300 298 53 57 54 55 45 50 147 65 349 351 7 353 196 176 175 188 187 174 174 178 178 179 174 165 164 165 165 165 168 171 171 170 169 169 169 172 174 175 175 174 173 174 174 173 174 174 172 171 171 172 173 174 175 175 175 177 178 180 180 181 184 186 187 189 192 194 194 195 198 200
97 145 156 136 153 216 246 242 190 141 188 250 246 280 303 306 95 82 57 355 328 246 180 163 113 351 359 8 46 152 162 167 161 159 162 156 146 147 151 155 160 162 162 164 166 168 169 169 169 169 169 171 173 174 174 173 173 173 174 175 175 174 174 172 171 171 173 175 175 176 177 178 179 180 181 183 185 187 188 190 193 197 200 201 203 206